This demonstration page uses our WeatherBlox Daily Observations layout. Learn more.

Left ArrowRight Arrow

53.62937, 11.41316

Hourly Observations for September 17, 2021

Temp ( °F °C ) Dew Point ( °F °C ) Humidity (%) Winds ( mph kmh ) Pressure ( in mb ) Visibility ( mi km ) Precip ( " mm )
7:20 am 07:20 Mostly Cloudy 55 13 52 11 88 88 WSW 5 7 29.91 1013 30 48 N/A
7:50 am 07:50 Mostly Cloudy 55 13 52 11 88 88 WSW 7 11 29.91 1013 30 48 N/A
8:20 am 08:20 Mostly Cloudy 55 13 52 11 88 88 WSW 9 15 29.91 1013 30 48 N/A
8:50 am 08:50 Mostly Cloudy 55 13 52 11 88 88 VRB 6 9 29.91 1013 30 48 N/A
9:20 am 09:20 Mostly Cloudy 55 13 50 10 82 82 VRB 6 9 29.91 1013 30 48 N/A
9:50 am 09:50 Partly Cloudy 55 13 48 9 77 77 WSW 6 9 29.91 1013 30 48 N/A
10:20 am 10:20 Mostly Cloudy 57 14 50 10 77 77 WSW 7 11 29.91 1013 30 48 N/A
10:50 am 10:50 Mostly Cloudy 57 14 50 10 77 77 WSW 7 11 29.91 1013 30 48 N/A
11:20 am 11:20 Mostly Cloudy 57 14 48 9 72 72 WSW 8 13 29.94 1014 30 48 N/A
11:50 am 11:50 Mostly Cloudy 57 14 48 9 72 72 WSW 8 13 29.94 1014 30 48 N/A
12:20 pm 12:20 Mostly Cloudy 57 14 48 9 72 72 WSW 6 9 29.94 1014 30 48 N/A
12:50 pm 12:50 Mostly Cloudy 57 14 48 9 72 72 WSW 7 11 29.94 1014 30 48 N/A
1:20 pm 13:20 Mostly Cloudy 57 14 48 9 72 72 WSW 6 9 29.94 1014 30 48 N/A
1:50 pm 13:50 Mostly Cloudy 57 14 50 10 77 77 WSW 5 7 29.94 1014 30 48 N/A
2:20 pm 14:20 Mostly Cloudy 57 14 50 10 77 77 WSW 5 7 29.94 1014 30 48 N/A
2:50 pm 14:50 Mostly Cloudy 59 15 50 10 72 72 SW 8 13 29.94 1014 30 48 N/A
3:20 pm 15:20 Mostly Cloudy 59 15 50 10 72 72 WSW 7 11 29.94 1014 30 48 N/A
3:50 pm 15:50 Mostly Cloudy 57 14 48 9 72 72 WSW 7 11 29.94 1014 30 48 N/A
4:20 pm 16:20 Mostly Cloudy 57 14 48 9 72 72 WSW 6 9 29.94 1014 30 48 N/A
4:50 pm 16:50 Mostly Cloudy 57 14 50 10 77 77 WSW 5 7 29.94 1014 30 48 N/A
5:20 pm 17:20 Mostly Cloudy 57 14 50 10 77 77 WSW 5 7 29.91 1013 30 48 N/A
5:50 pm 17:50 Mostly Cloudy 57 14 50 10 77 77 WSW 6 9 29.91 1013 30 48 N/A
6:20 pm 18:20 Mostly Cloudy 57 14 50 10 77 77 WSW 3 6 29.94 1014 30 48 N/A
6:50 pm 18:50 Mostly Cloudy 57 14 50 10 77 77 WSW 3 6 29.94 1014 30 48 N/A
7:20 pm 19:20 Mostly Cloudy 57 14 52 11 82 82 VRB 2 4 29.91 1013 30 48 N/A
7:50 pm 19:50 Mostly Cloudy 57 14 52 11 82 82 VRB 2 4 29.91 1013 30 48 N/A
8:20 pm 20:20 Mostly Cloudy 57 14 52 11 82 82 WSW 3 6 29.94 1014 30 48 N/A
8:50 pm 20:50 Mostly Cloudy 55 13 52 11 88 88 WSW 3 6 29.94 1014 30 48 N/A
9:20 pm 21:20 Mostly Cloudy 55 13 52 11 88 88 WSW 3 6 29.94 1014 30 48 N/A
9:50 pm 21:50 Mostly Cloudy 55 13 52 11 88 88 WSW 3 6 29.94 1014 30 48 N/A

Powered by AerisWeather